"Pseudo-MPEC" for ST26E14

Created 2026 May 14 16:35:11 UT using Find_Orb

Click here for an explanation of pseudo-MPECs

 
 Astrometry: 
     ST26E14* C2026 05 08.41823613 26 40.640-04 13 31.26   ~58B5 17.71GVNEOCPU68
     ST26E14  C2026 05 08.42157713 26 40.293-04 13 27.85   ~58B5 17.71GVNEOCPU68

Station data:
(U68) JPL SynTrack Robotic Telescope, Auberry  (N37.070387 W119.412990)
   US/California.  Observers N. Saini, C. Zhai, R. Trahan, M. Zhan, M. Shao.
   0.28-m f/2.2 Schmidt + CCD.

Orbital elements:  ST26E14
   Perihelion 2026 Feb 2.012842 +/- 202 TT =  0:18:29.5 (JD 2461073.512842)
Epoch 2026 May  8.0 TT = JDT 2461168.5   Earth MOID: 0.1286   Ma: 0.0337
M  12.772412821 +/- 80              (J2000 ecliptic)             AutoNEOCP
n   0.134464627 +/- 0.228           Peri.  208.988628 +/- 51
a   3.773381186 +/- 4.26            Node   211.621607 +/- 23
e   0.96466917 +/- 0.228            Incl.   43.227824 +/- 53
P   7.32987                H 15.56  G  0.15   U 11.8  SR
q 0.133316666 +/- 0.817    Q 7.413445707 +/- 22.4
From 2 observations 2026 May 8 (4.8 min); mean residual 0".00
Residuals in arcseconds: 
260508 U68  .00   .00     260508 U68  .00   .00     

Ephemerides (geocentric):
Date (UTC) HH   RA             Dec           delta  r     elong  mag " sig PA
---- --------  ------------   ------------  ------ ------ -----  --- --------
2026 05 14 17  13 17 32.395   -02 41 40.61  1.2036 2.1128 145.0 18.4 2380  61
2026 05 14 18  13 17 29.350   -02 41 09.70  1.2045 2.1134 145.0 18.4 2401  60
2026 05 14 19  13 17 26.312   -02 40 38.86  1.2054 2.1140 144.9 18.5 2422  60
2026 05 14 20  13 17 23.282   -02 40 08.10  1.2063 2.1145 144.9 18.5 2443  60
2026 05 14 21  13 17 20.258   -02 39 37.39  1.2072 2.1151 144.8 18.5 2465  60
2026 05 14 22  13 17 17.242   -02 39 06.76  1.2081 2.1157 144.8 18.5 2486  60
2026 05 14 23  13 17 14.232   -02 38 36.19  1.2090 2.1162 144.7 18.5 2508  60
2026 05 15 00  13 17 11.230   -02 38 05.70  1.2100 2.1168 144.7 18.5 2529  60
2026 05 15 01  13 17 08.235   -02 37 35.26  1.2109 2.1174 144.6 18.5 2551  60
2026 05 15 02  13 17 05.247   -02 37 04.90  1.2118 2.1179 144.5 18.5 2573  60
2026 05 15 03  13 17 02.267   -02 36 34.60  1.2127 2.1185 144.5 18.5 2595  60
2026 05 15 04  13 16 59.293   -02 36 04.37  1.2136 2.1191 144.4 18.5 2617  60
2026 05 15 05  13 16 56.326   -02 35 34.21  1.2145 2.1196 144.4 18.5 2639  60
2026 05 15 06  13 16 53.367   -02 35 04.11  1.2154 2.1202 144.3 18.5 2661  60
2026 05 15 07  13 16 50.415   -02 34 34.08  1.2163 2.1208 144.3 18.5 2684  60
2026 05 15 08  13 16 47.469   -02 34 04.11  1.2173 2.1213 144.2 18.5 2706  60
2026 05 15 09  13 16 44.531   -02 33 34.22  1.2182 2.1219 144.2 18.5 2729  60
2026 05 15 10  13 16 41.600   -02 33 04.39  1.2191 2.1224 144.1 18.5 2751  60
2026 05 15 11  13 16 38.675   -02 32 34.62  1.2200 2.1230 144.1 18.5 2774  60
2026 05 15 12  13 16 35.758   -02 32 04.92  1.2209 2.1236 144.0 18.5 2797  59
2026 05 15 13  13 16 32.848   -02 31 35.29  1.2218 2.1241 144.0 18.5 2820  59
2026 05 15 14  13 16 29.945   -02 31 05.72  1.2227 2.1247 143.9 18.5 2843  59
2026 05 15 15  13 16 27.049   -02 30 36.22  1.2237 2.1253 143.8 18.5 2866  59
2026 05 15 16  13 16 24.159   -02 30 06.79  1.2246 2.1258 143.8 18.5 2890  59
2026 05 15 17  13 16 21.277   -02 29 37.42  1.2255 2.1264 143.7 18.5 2913  59
2026 05 15 18  13 16 18.402   -02 29 08.11  1.2264 2.1270 143.7 18.5 2937  59
2026 05 15 19  13 16 15.533   -02 28 38.87  1.2273 2.1275 143.6 18.5 2960  59
2026 05 15 20  13 16 12.672   -02 28 09.70  1.2283 2.1281 143.6 18.5 2984  59
2026 05 15 21  13 16 09.817   -02 27 40.59  1.2292 2.1286 143.5 18.5 3008  59
2026 05 15 22  13 16 06.970   -02 27 11.55  1.2301 2.1292 143.5 18.5 3032  59
2026 05 15 23  13 16 04.129   -02 26 42.57  1.2310 2.1298 143.4 18.5 3056  59
2026 05 16 00  13 16 01.295   -02 26 13.66  1.2319 2.1303 143.4 18.5 3081  59
2026 05 16 01  13 15 58.468   -02 25 44.81  1.2329 2.1309 143.3 18.5 3105  59
2026 05 16 02  13 15 55.648   -02 25 16.02  1.2338 2.1315 143.2 18.5 3130  59
2026 05 16 03  13 15 52.835   -02 24 47.30  1.2347 2.1320 143.2 18.5 3154  59
2026 05 16 04  13 15 50.029   -02 24 18.65  1.2356 2.1326 143.1 18.5 3179  59
2026 05 16 05  13 15 47.229   -02 23 50.06  1.2365 2.1331 143.1 18.5 3204  59
2026 05 16 06  13 15 44.437   -02 23 21.53  1.2375 2.1337 143.0 18.6 3229  59
2026 05 16 07  13 15 41.651   -02 22 53.07  1.2384 2.1343 143.0 18.6 3254  58
2026 05 16 08  13 15 38.872   -02 22 24.67  1.2393 2.1348 142.9 18.6 3280  58
2026 05 16 09  13 15 36.100   -02 21 56.34  1.2402 2.1354 142.9 18.6 3305  58
2026 05 16 10  13 15 33.334   -02 21 28.07  1.2412 2.1360 142.8 18.6 3331  58
2026 05 16 11  13 15 30.576   -02 20 59.87  1.2421 2.1365 142.8 18.6 3357  58
2026 05 16 12  13 15 27.824   -02 20 31.72  1.2430 2.1371 142.7 18.6 3383  58
2026 05 16 13  13 15 25.079   -02 20 03.65  1.2439 2.1376 142.7 18.6 3409  58
2026 05 16 14  13 15 22.341   -02 19 35.63  1.2449 2.1382 142.6 18.6 3435  58
2026 05 16 15  13 15 19.609   -02 19 07.68  1.2458 2.1388 142.5 18.6 3462  58
2026 05 16 16  13 15 16.884   -02 18 39.79  1.2467 2.1393 142.5 18.6 3488  58